Weather History for Buckhannon, WV

Change the Weather History Date:

Sunday, May 12, 2013

  Actual Average (KEKN) Record (KEKN)
Temperature  
Mean Temperature 46 °F 57 °F  
Max Temperature 51 °F 70 °F 88 °F (1914)
Min Temperature 42 °F 44 °F 25 °F (1913)
Degree Days  
Heating Degree Days 18 8  
Month to date heating degree days 117  
Since 1 July heating degree days 5680  
Cooling Degree Days 0 0  
Month to date cooling degree days 0  
Year to date cooling degree days 3  
Moisture  
Dew Point 33 °F    
Average Humidity 58    
Maximum Humidity 93    
Minimum Humidity 38    
Precipitation  
Precipitation 0.00 in 0.17 in 1.39 in (1924)
Month to date precipitation 1.90  
Year to date precipitation 15.99  
Snow  
Snow 0.00 in - - ()
Month to date snowfall  
Since 1 September snowfall  
Snow Depth -    
Sea Level Pressure  
Sea Level Pressure 29.99 in    
Wind  
Wind Speed 8 mph (West)    
Max Wind Speed 20 mph    
Max Gust Speed 26 mph    
Visibility 10 miles    
Events      
T = Trace of Precipitation, MM = Missing Value Source: NWS Daily Summary

Daily Weather History Graph

Daily Weather History Graph

Search for Another Location

Airport:

Trip Planner

Search our weather history database for the weather conditions in past years. The results will help you decide how hot, cold, wet, or windy it might be!

Date:

Astronomy

May. 12, 2013 Rise Set
Actual Time 6:10 AM EDT 8:24 PM EDT
Civil Twilight 5:41 AM EDT 8:54 PM EDT
Nautical Twilight 5:04 AM EDT 9:31 PM EDT
Astronomical Twilight 4:24 AM EDT 10:11 PM EDT
Moon 8:04 AM EDT (5/12) 10:50 PM EDT (5/12)
Length of Visible Light 15h 13m
Length of Day
14h 13m
Waxing Crescent, 6% of the Moon is Illuminated
May 12
Waxing Crescent
May 18
First Quarter
May 25
Full
May 31
Last Quarter
Jun 8
New

Hourly Weather History & Observations

Time (EDT) Temp. Windchill Dew Point Humidity Pressure Visibility Wind Dir Wind Speed Gust Speed Precip Events Conditions
12:15 AM 51.8 °F - 46.4 °F 82% 29.91 in 10.0 mi WSW 8.1 mph - N/A   Mostly Cloudy
12:35 AM 51.8 °F - 46.4 °F 82% 29.91 in 10.0 mi WSW 9.2 mph - N/A   Mostly Cloudy
12:55 AM 51.8 °F - 48.2 °F 88% 29.91 in 10.0 mi SW 9.2 mph - N/A   Overcast
1:15 AM 51.8 °F - 48.2 °F 88% 29.91 in 10.0 mi WSW 9.2 mph - N/A   Overcast
1:35 AM 51.8 °F - 46.4 °F 82% 29.91 in 10.0 mi WSW 6.9 mph - N/A   Overcast
1:55 AM 50.0 °F - 46.4 °F 87% 29.91 in 10.0 mi SW 12.7 mph 17.3 mph N/A   Overcast
2:15 AM 50.0 °F - 46.4 °F 87% 29.91 in 10.0 mi WSW 10.4 mph - N/A   Overcast
2:35 AM 50.0 °F - 46.4 °F 87% 29.91 in 10.0 mi WSW 13.8 mph 18.4 mph N/A   Overcast
2:55 AM 50.0 °F - 46.4 °F 87% 29.90 in 10.0 mi West 8.1 mph - N/A   Overcast
3:15 AM 48.2 °F - 46.4 °F 93% 29.90 in 9.0 mi NW 4.6 mph - N/A   Light Drizzle
3:35 AM 48.2 °F - 42.8 °F 82% 29.90 in 10.0 mi NNW 9.2 mph 18.4 mph N/A   Light Drizzle
3:55 AM 48.2 °F - 39.2 °F 71% 29.91 in 10.0 mi WNW 6.9 mph - N/A   Overcast
4:15 AM 48.2 °F - 37.4 °F 66% 29.91 in 10.0 mi NW 8.1 mph - N/A   Overcast
4:35 AM 46.4 °F 43.5 °F 35.6 °F 66% 29.91 in 10.0 mi NW 5.8 mph - N/A   Overcast
4:55 AM 46.4 °F - 35.6 °F 66% 29.92 in 10.0 mi Calm Calm - N/A   Overcast
5:35 AM 46.4 °F 44.3 °F 33.8 °F 62% 29.93 in 10.0 mi WNW 4.6 mph - N/A   Overcast
5:55 AM 44.6 °F 42.2 °F 33.8 °F 66% 29.94 in 10.0 mi WNW 4.6 mph - N/A   Overcast
6:15 AM 44.6 °F - 32.0 °F 61% 29.95 in 10.0 mi Calm Calm - N/A   Overcast
6:35 AM 44.6 °F 40.7 °F 33.8 °F 66% 29.96 in 10.0 mi West 6.9 mph - N/A   Overcast
6:55 AM 42.8 °F 38.6 °F 33.8 °F 70% 29.97 in 10.0 mi WNW 6.9 mph - N/A   Overcast
7:15 AM 42.8 °F 38.6 °F 33.8 °F 70% 29.98 in 10.0 mi West 6.9 mph - N/A   Overcast
7:35 AM 42.8 °F 39.3 °F 33.8 °F 70% 29.98 in 10.0 mi WNW 5.8 mph - N/A   Overcast
7:55 AM 42.8 °F 37.0 °F 35.6 °F 76% 29.99 in 10.0 mi West 10.4 mph - N/A   Overcast
8:15 AM 42.8 °F 37.0 °F 33.8 °F 70% 29.99 in 10.0 mi West 10.4 mph - N/A   Mostly Cloudy
8:35 AM 42.8 °F 40.1 °F 32.0 °F 66% 30.00 in 10.0 mi WNW 4.6 mph - N/A   Scattered Clouds
8:55 AM 44.6 °F 42.2 °F 32.0 °F 61% 30.00 in 10.0 mi NW 4.6 mph - N/A   Partly Cloudy
9:15 AM 44.6 °F 39.7 °F 30.2 °F 57% 30.00 in 10.0 mi NW 9.2 mph - N/A   Clear
9:35 AM 44.6 °F 41.4 °F 30.2 °F 57% 30.00 in 10.0 mi West 5.8 mph - N/A   Partly Cloudy
9:55 AM 44.6 °F 43.1 °F 28.4 °F 53% 30.00 in 10.0 mi NNW 3.5 mph 17.3 mph N/A   Partly Cloudy
10:15 AM 46.4 °F 42.9 °F 30.2 °F 53% 30.00 in 10.0 mi West 6.9 mph - N/A   Partly Cloudy
10:35 AM 46.4 °F 40.4 °F 30.2 °F 53% 30.00 in 10.0 mi West 13.8 mph 23.0 mph N/A   Scattered Clouds
10:55 AM 46.4 °F 44.3 °F 30.2 °F 53% 30.00 in 10.0 mi NNW 4.6 mph - N/A   Partly Cloudy
11:15 AM 46.4 °F 41.9 °F 28.4 °F 50% 30.00 in 10.0 mi West 9.2 mph 16.1 mph N/A   Mostly Cloudy
11:35 AM 48.2 °F - 28.4 °F 46% 29.99 in 10.0 mi West 6.9 mph 17.3 mph N/A   Mostly Cloudy
11:55 AM 48.2 °F - 28.4 °F 46% 30.00 in 10.0 mi WNW 12.7 mph 19.6 mph N/A   Mostly Cloudy
12:15 PM 48.2 °F - 28.4 °F 46% 29.99 in 10.0 mi WNW 11.5 mph 23.0 mph N/A   Mostly Cloudy
12:35 PM 48.2 °F - 30.2 °F 50% 29.99 in 10.0 mi WNW 10.4 mph 21.9 mph N/A   Mostly Cloudy
12:55 PM 51.8 °F - 32.0 °F 47% 30.00 in 10.0 mi West 9.2 mph 21.9 mph N/A   Mostly Cloudy
1:15 PM 50.0 °F - 30.2 °F 47% 29.99 in 10.0 mi WNW 11.5 mph 20.7 mph N/A   Mostly Cloudy
1:35 PM 50.0 °F - 30.2 °F 47% 30.00 in 10.0 mi WSW 19.6 mph 24.2 mph N/A   Mostly Cloudy
1:55 PM 48.2 °F - 28.4 °F 46% 30.00 in 10.0 mi WNW 13.8 mph 23.0 mph N/A   Mostly Cloudy
2:15 PM 50.0 °F - 30.2 °F 47% 30.00 in 10.0 mi West 10.4 mph 21.9 mph N/A   Mostly Cloudy
2:35 PM 50.0 °F - 30.2 °F 47% 30.01 in 10.0 mi West 15.0 mph 24.2 mph N/A   Mostly Cloudy
2:55 PM 51.8 °F - 30.2 °F 44% 30.00 in 10.0 mi West 12.7 mph 20.7 mph N/A   Scattered Clouds
3:15 PM 50.0 °F - 30.2 °F 47% 30.01 in 10.0 mi West 15.0 mph 26.5 mph N/A   Mostly Cloudy
3:35 PM 48.2 °F - 30.2 °F 50% 30.01 in 10.0 mi West 13.8 mph 20.7 mph N/A   Mostly Cloudy
3:55 PM 50.0 °F - 30.2 °F 47% 30.01 in 10.0 mi WNW 11.5 mph 18.4 mph N/A   Mostly Cloudy
4:15 PM 50.0 °F - 28.4 °F 43% 30.01 in 10.0 mi NW 12.7 mph 18.4 mph N/A   Overcast
4:35 PM 50.0 °F - 28.4 °F 43% 30.01 in 10.0 mi West 10.4 mph 20.7 mph N/A   Mostly Cloudy
4:55 PM 50.0 °F - 28.4 °F 43% 30.01 in 10.0 mi WNW 6.9 mph 23.0 mph N/A   Mostly Cloudy
5:15 PM 51.8 °F - 28.4 °F 41% 30.02 in 10.0 mi West 17.3 mph 23.0 mph N/A   Scattered Clouds
5:35 PM 50.0 °F - 26.6 °F 40% 30.02 in 10.0 mi West 9.2 mph 21.9 mph N/A   Mostly Cloudy
5:55 PM 51.8 °F - 28.4 °F 41% 30.02 in 10.0 mi West 8.1 mph - N/A   Mostly Cloudy
6:15 PM 51.8 °F - 26.6 °F 38% 30.02 in 10.0 mi West 11.5 mph 20.7 mph N/A   Scattered Clouds
6:35 PM 48.2 °F - 28.4 °F 46% 30.02 in 10.0 mi WNW 11.5 mph 18.4 mph N/A   Scattered Clouds
6:55 PM 50.0 °F - 28.4 °F 43% 30.03 in 10.0 mi West 10.4 mph - N/A   Scattered Clouds
7:15 PM 50.0 °F - 28.4 °F 43% 30.03 in 10.0 mi West 11.5 mph 16.1 mph N/A   Partly Cloudy
7:35 PM 48.2 °F - 28.4 °F 46% 30.04 in 10.0 mi West 6.9 mph 16.1 mph N/A   Scattered Clouds
7:55 PM 48.2 °F - 28.4 °F 46% 30.04 in 10.0 mi West 5.8 mph - N/A   Partly Cloudy
8:15 PM 46.4 °F 42.9 °F 26.6 °F 46% 30.04 in 10.0 mi West 6.9 mph 16.1 mph N/A   Partly Cloudy
8:35 PM 46.4 °F 42.4 °F 26.6 °F 46% 30.05 in 10.0 mi West 8.1 mph - N/A   Partly Cloudy
8:55 PM 46.4 °F 43.5 °F 28.4 °F 50% 30.05 in 10.0 mi West 5.8 mph - N/A   Clear
9:15 PM 46.4 °F 45.2 °F 28.4 °F 50% 30.06 in 10.0 mi West 3.5 mph - N/A   Clear
9:35 PM 44.6 °F 43.1 °F 28.4 °F 53% 30.07 in 10.0 mi West 3.5 mph - N/A   Clear
9:55 PM 44.6 °F - 28.4 °F 53% 30.08 in 10.0 mi Calm Calm - N/A   Clear
10:15 PM 44.6 °F 41.4 °F 28.4 °F 53% 30.09 in 10.0 mi West 5.8 mph - N/A   Clear
10:35 PM 44.6 °F - 28.4 °F 53% 30.09 in 10.0 mi Calm Calm - N/A   Clear
10:55 PM 42.8 °F - 30.2 °F 61% 30.09 in 10.0 mi Calm Calm - N/A   Clear
11:15 PM 42.8 °F - 30.2 °F 61% 30.10 in 10.0 mi Calm Calm - N/A   Scattered Clouds
11:35 PM 42.8 °F - 30.2 °F 61% 30.10 in 10.0 mi Calm Calm - N/A   Mostly Cloudy
11:55 PM 42.8 °F - 30.2 °F 61% 30.10 in 10.0 mi Calm Calm - N/A   Overcast